Change the Weather History Date:

Friday, December 7, 2012

  Actual Average Record
Temperature  
Mean Temperature 56 °F -  
Max Temperature 59 °F 61 °F 71 °F (2004)
Min Temperature 52 °F 49 °F 42 °F (1999)
Degree Days  
Heating Degree Days 10    
Growing Degree Days 6 (Base 50)    
Moisture  
Dew Point 45 °F    
Average Humidity 69    
Maximum Humidity 88    
Minimum Humidity 45    
Precipitation  
Precipitation 0.00 in 0.08 in - ()
Sea Level Pressure  
Sea Level Pressure 29.98 in    
Wind  
Wind Speed 11 mph ()    
Max Wind Speed 17 mph    
Max Gust Speed -    
Visibility 6.7 miles    
Events Rain    
Averages and records for this station are not official NWS values.
T = Trace of Precipitation, MM = Missing Value Source: Averaged Metar Reports

Daily Weather History Graph

Daily Weather History Graph

Search for Another Location

Airport or City:

Trip Planner

Search our weather history database for the weather conditions in past years. The results will help you decide how hot, cold, wet, or windy it might be!

Date:

Astronomy

Dec. 07, 2012 Rise Set
Actual Time 7:12 AM CET 4:50 PM CET
Civil Twilight 6:43 AM CET 5:19 PM CET
Nautical Twilight 6:10 AM CET 5:52 PM CET
Astronomical Twilight 5:38 AM CET 6:24 PM CET
Moon 12:19 AM CET 12:33 PM CET
Length of Visible Light 10h 36m
Length of Day
9h 37m
Last Quarter, 41% of the Moon is Illuminated
Dec 7
Last Quarter
Dec 13
New
Dec 20
First Quarter
Dec 28
Full
Jan 5
Last Quarter

Hourly Weather History & Observations

Time (CET) Temp. Dew Point Humidity Pressure Visibility Wind Dir Wind Speed Gust Speed Precip Events Conditions
12:55 AM 53.6 °F 42.8 °F 67% 29.98 in 6.2 mi WNW 17.3 mph - N/A   Scattered Clouds
1:00 AM 54 °F 43 °F 57% 29.98 in 7 mi WNW 17.3 mph - -   Partly Cloudy
1:55 AM 53.6 °F 42.8 °F 67% 29.98 in 6.2 mi WNW 16.1 mph - N/A   Scattered Clouds
2:55 AM 53.6 °F 44.6 °F 72% 29.98 in 6.2 mi WNW 13.8 mph - N/A   Scattered Clouds
3:55 AM 53.6 °F 44.6 °F 72% 29.98 in 6.2 mi WNW 16.1 mph - N/A   Scattered Clouds
4:55 AM 51.8 °F 42.8 °F 71% 30.01 in 6.2 mi WNW 11.5 mph - N/A   Scattered Clouds
5:55 AM 51.8 °F 42.8 °F 71% 30.01 in 6.2 mi WNW 12.7 mph - N/A   Scattered Clouds
6:55 AM 53.6 °F 41.0 °F 62% 30.01 in 6.2 mi WNW 11.5 mph - N/A   Scattered Clouds
7:00 AM 54 °F 41 °F 51% 30.03 in 10 mi WNW 11.5 mph - -   Mostly Cloudy
7:55 AM 53.6 °F 44.6 °F 72% 30.04 in 6.2 mi West 10.4 mph - N/A   Mostly Cloudy
8:55 AM 55.4 °F 44.6 °F 67% 30.04 in 6.2 mi WNW 16.1 mph - N/A   Mostly Cloudy
9:55 AM 57.2 °F 46.4 °F 67% 30.04 in 6.2 mi West 15.0 mph - N/A   Mostly Cloudy
10:55 AM 59.0 °F 44.6 °F 59% 30.04 in 6.2 mi WNW 15.0 mph - N/A   Mostly Cloudy
11:55 AM 57.2 °F 44.6 °F 63% 30.04 in 6.2 mi West 12.7 mph - N/A   Scattered Clouds
12:55 PM 59.0 °F 42.8 °F 55% 30.01 in 6.2 mi WNW 13.8 mph - N/A   Partly Cloudy
1:00 PM 59 °F 43 °F 45% 30.03 in 16 mi WNW 13.8 mph - -   Scattered Clouds
1:55 PM 59.0 °F 44.6 °F 59% 30.01 in 6.2 mi WNW 8.1 mph - N/A   Partly Cloudy
2:55 PM 59.0 °F 44.6 °F 59% 29.98 in 6.2 mi WNW 6.9 mph - N/A   Partly Cloudy
3:55 PM 57.2 °F 46.4 °F 67% 29.98 in 6.2 mi West 4.6 mph - N/A   Mostly Cloudy
4:55 PM 55.4 °F 46.4 °F 72% 29.98 in 6.2 mi WSW 5.8 mph - N/A   Scattered Clouds
5:55 PM 53.6 °F 48.2 °F 82% 29.95 in 6.2 mi SW 1.2 mph - N/A   Partly Cloudy
6:55 PM 53.6 °F 50.0 °F 88% 29.95 in 6.2 mi South 2.3 mph - N/A   Partly Cloudy
7:00 PM 54 °F 50 °F 81% 29.96 in 7 mi South 2.3 mph - -   Scattered Clouds
7:55 PM 53.6 °F 50.0 °F 88% 29.95 in 6.2 mi South 5.8 mph - N/A Rain Light Rain
8:55 PM 53.6 °F 50.0 °F 88% 29.92 in 6.2 mi SE 6.9 mph - N/A Rain Light Rain
9:55 PM 55.4 °F 44.6 °F 67% 29.89 in 6.2 mi South 6.9 mph - N/A   Scattered Clouds
10:55 PM 59.0 °F 50.0 °F 72% 29.89 in 6.2 mi South 11.5 mph - N/A   Scattered Clouds
11:55 PM 55.4 °F 51.8 °F 88% 29.86 in 6.2 mi South 6.9 mph - N/A   Partly Cloudy